Location: Pontbriand
(46.1542°N, 71.2542°W)
Time: 11:39:49
(UTC+00:00)

Envisat - Pass Details

Date: 06 December 2021
Orbit: 764 x 766 km, 98.2° (Epoch: 20 January)

Event Time Altitude Azimuth Distance (km) Brightness Sun altitude
Rises 22:15:25 0° 214° (SSW) 3,221 7.2 -12.6°
Reaches altitude 10° 22:18:43 10° 236° (WSW) 2,301 6.8 -13.2°
Maximum altitude 22:21:37 15° 272° (W) 1,970 6.2 -13.7°
Drops below altitude 10° 22:24:31 10° 307° (NW) 2,311 6.0 -14.1°
Sets 22:27:52 0° 330° (NNW) 3,244 6.4 -14.7°
